Time,TemperatureF,DewpointF,PressureIn,WindDirection,WindDirectionDegrees,WindSpeedMPH,WindSpeedGustMPH,Humidity,HourlyPrecipIn,Conditions,Clouds,dailyrainin,SoftwareType,DateUTC
2013-07-25 00:02:00,76.9,70.6,29.96,NE,53,0.0,0.0,81,0.00,,,0.00,Wunderground v.1.15,2013-07-25 05:02:00,
2013-07-25 00:08:00,76.7,70.8,29.96,NE,53,0.0,0.0,82,0.00,,,0.00,Wunderground v.1.15,2013-07-25 05:08:00,
2013-07-25 00:14:00,76.5,70.6,29.96,NE,53,0.0,0.0,82,0.00,,,0.00,Wunderground v.1.15,2013-07-25 05:14:00,
2013-07-25 00:20:00,76.4,70.5,29.96,NE,53,0.0,0.0,82,0.00,,,0.00,Wunderground v.1.15,2013-07-25 05:20:00,
2013-07-25 00:25:00,76.3,70.4,29.96,NE,53,0.0,1.0,82,0.00,,,0.00,Wunderground v.1.15,2013-07-25 05:25:00,
2013-07-25 00:30:00,76.2,70.3,29.96,NE,53,0.0,1.0,82,0.00,,,0.00,Wunderground v.1.15,2013-07-25 05:30:00,
2013-07-25 00:36:00,76.0,70.1,29.96,NE,53,0.0,1.0,82,0.00,,,0.00,Wunderground v.1.15,2013-07-25 05:36:00,
2013-07-25 00:41:00,75.9,70.4,29.96,ENE,66,0.0,1.0,83,0.00,,,0.00,Wunderground v.1.15,2013-07-25 05:41:00,
2013-07-25 00:46:00,75.8,70.3,29.96,ENE,66,0.0,1.0,83,0.00,,,0.00,Wunderground v.1.15,2013-07-25 05:46:00,
2013-07-25 00:52:00,75.7,70.2,29.96,ENE,61,0.0,0.0,83,0.00,,,0.00,Wunderground v.1.15,2013-07-25 05:52:00,
2013-07-25 00:58:00,75.6,70.1,29.95,ENE,67,0.0,3.0,83,0.00,,,0.00,Wunderground v.1.15,2013-07-25 05:58:00,
2013-07-25 01:04:00,75.4,70.0,29.95,ENE,68,0.0,1.0,83,0.00,,,0.00,weatherlink.com 1.10,2013-07-25 06:04:00,
2013-07-25 01:10:00,75.3,69.8,29.96,ENE,67,0.0,0.0,83,0.00,,,0.00,Wunderground v.1.15,2013-07-25 06:10:00,
2013-07-25 01:15:00,75.1,69.6,29.95,ESE,105,0.0,0.0,83,0.00,,,0.00,Wunderground v.1.15,2013-07-25 06:15:00,
2013-07-25 01:21:00,75.0,69.5,29.95,ESE,105,0.0,0.0,83,0.00,,,0.00,Wunderground v.1.15,2013-07-25 06:21:00,
2013-07-25 01:26:00,74.9,69.7,29.95,ESE,105,0.0,0.0,84,0.00,,,0.00,Wunderground v.1.15,2013-07-25 06:26:00,
2013-07-25 01:31:00,74.8,69.6,29.95,ESE,105,0.0,0.0,84,0.00,,,0.00,Wunderground v.1.15,2013-07-25 06:31:00,
2013-07-25 01:37:00,74.7,69.5,29.95,ESE,105,0.0,0.0,84,0.00,,,0.00,Wunderground v.1.15,2013-07-25 06:37:00,
2013-07-25 01:43:00,74.6,69.4,29.95,ESE,105,0.0,0.0,84,0.00,,,0.00,Wunderground v.1.15,2013-07-25 06:43:00,
2013-07-25 01:49:00,74.5,69.0,29.95,ESE,105,0.0,0.0,84,0.00,,,0.00,weatherlink.com 1.10,2013-07-25 06:49:00,
2013-07-25 01:54:00,74.4,69.2,29.95,ESE,105,0.0,0.0,84,0.00,,,0.00,Wunderground v.1.15,2013-07-25 06:54:00,
2013-07-25 02:00:00,74.3,69.1,29.95,ESE,105,0.0,0.0,84,0.00,,,0.00,Wunderground v.1.15,2013-07-25 07:00:00,
2013-07-25 02:06:00,74.2,69.0,29.95,ESE,105,0.0,0.0,84,0.00,,,0.00,weatherlink.com 1.10,2013-07-25 07:06:00,
2013-07-25 02:11:00,74.2,69.1,29.95,ESE,105,0.0,0.0,84,0.00,,,0.00,Wunderground v.1.15,2013-07-25 07:11:00,
2013-07-25 02:16:00,74.1,69.0,29.96,ESE,105,0.0,1.0,84,0.00,,,0.00,Wunderground v.1.15,2013-07-25 07:16:00,
2013-07-25 02:21:00,74.0,69.2,29.95,ESE,105,0.0,0.0,85,0.00,,,0.00,Wunderground v.1.15,2013-07-25 07:21:00,
2013-07-25 02:27:00,73.9,69.1,29.95,ESE,105,0.0,0.0,85,0.00,,,0.00,Wunderground v.1.15,2013-07-25 07:27:00,
2013-07-25 02:32:00,73.8,69.0,29.95,ESE,105,0.0,0.0,85,0.00,,,0.00,Wunderground v.1.15,2013-07-25 07:32:00,
2013-07-25 02:38:00,73.7,68.9,29.95,ESE,105,0.0,0.0,85,0.00,,,0.00,Wunderground v.1.15,2013-07-25 07:38:00,
2013-07-25 02:44:00,73.6,68.8,29.95,ESE,105,0.0,0.0,85,0.00,,,0.00,Wunderground v.1.15,2013-07-25 07:44:00,
2013-07-25 02:49:00,73.5,68.7,29.95,ESE,105,0.0,0.0,85,0.00,,,0.00,Wunderground v.1.15,2013-07-25 07:49:00,
2013-07-25 02:55:00,73.5,68.7,29.95,ESE,105,0.0,1.0,85,0.00,,,0.00,Wunderground v.1.15,2013-07-25 07:55:00,
2013-07-25 03:00:00,73.5,68.7,29.94,ESE,105,0.0,0.0,85,0.00,,,0.00,Wunderground v.1.15,2013-07-25 08:00:00,
2013-07-25 03:06:00,73.5,69.0,29.95,ESE,105,0.0,1.0,85,0.00,,,0.00,weatherlink.com 1.10,2013-07-25 08:06:00,
2013-07-25 03:11:00,73.5,68.7,29.95,ESE,105,0.0,0.0,85,0.00,,,0.00,Wunderground v.1.15,2013-07-25 08:11:00,
2013-07-25 03:17:00,73.5,68.7,29.95,ESE,105,0.0,0.0,85,0.00,,,0.00,Wunderground v.1.15,2013-07-25 08:17:00,
2013-07-25 03:22:00,73.5,68.7,29.95,ESE,105,0.0,1.0,85,0.00,,,0.00,Wunderground v.1.15,2013-07-25 08:22:00,
2013-07-25 03:28:00,73.5,68.7,29.96,ESE,105,0.0,1.0,85,0.00,,,0.00,Wunderground v.1.15,2013-07-25 08:28:00,
2013-07-25 03:34:00,73.4,69.0,29.96,ESE,105,0.0,0.0,86,0.00,,,0.00,Wunderground v.1.15,2013-07-25 08:34:00,
2013-07-25 03:40:00,73.2,68.8,29.96,ESE,105,0.0,0.0,86,0.00,,,0.00,Wunderground v.1.15,2013-07-25 08:40:00,
2013-07-25 03:46:00,73.1,68.7,29.96,ESE,105,0.0,0.0,86,0.00,,,0.00,Wunderground v.1.15,2013-07-25 08:46:00,
2013-07-25 03:52:00,72.9,68.8,29.96,ESE,105,0.0,0.0,87,0.00,,,0.00,Wunderground v.1.15,2013-07-25 08:52:00,
2013-07-25 03:57:00,72.8,68.7,29.96,ESE,104,0.0,0.0,87,0.00,,,0.00,Wunderground v.1.15,2013-07-25 08:57:00,
2013-07-25 04:03:00,72.7,68.6,29.96,East,101,0.0,0.0,87,0.00,,,0.00,Wunderground v.1.15,2013-07-25 09:03:00,
2013-07-25 04:20:00,72.4,69.0,29.96,ESE,108,0.0,2.0,88,0.00,,,0.00,weatherlink.com 1.10,2013-07-25 09:20:00,
2013-07-25 04:35:00,72.3,69.0,29.96,SE,128,1.0,3.0,88,0.00,,,0.00,weatherlink.com 1.10,2013-07-25 09:35:00,
2013-07-25 04:50:00,72.5,69.0,29.96,East,99,1.0,4.0,88,0.00,,,0.00,weatherlink.com 1.10,2013-07-25 09:50:00,
2013-07-25 05:05:00,72.5,69.0,29.96,ENE,76,1.0,3.0,88,0.00,,,0.00,weatherlink.com 1.10,2013-07-25 10:05:00,
2013-07-25 05:20:00,72.6,69.0,29.97,SE,138,0.0,5.0,88,0.00,,,0.00,weatherlink.com 1.10,2013-07-25 10:20:00,
2013-07-25 05:35:00,72.6,69.0,29.97,East,87,0.0,5.0,88,0.00,,,0.00,weatherlink.com 1.10,2013-07-25 10:35:00,
2013-07-25 05:50:00,72.7,69.0,29.98,ESE,119,3.0,5.0,88,0.00,,,0.00,weatherlink.com 1.10,2013-07-25 10:50:00,
2013-07-25 06:05:00,72.6,69.0,29.98,ESE,109,2.0,5.0,88,0.00,,,0.00,weatherlink.com 1.10,2013-07-25 11:05:00,
2013-07-25 06:20:00,72.6,69.0,29.98,East,82,0.0,3.0,88,0.00,,,0.00,weatherlink.com 1.10,2013-07-25 11:20:00,
2013-07-25 06:35:00,72.3,69.0,29.99,NE,46,1.0,2.0,88,0.00,,,0.00,weatherlink.com 1.10,2013-07-25 11:35:00,
2013-07-25 06:50:00,72.1,69.0,29.99,East,82,0.0,4.0,89,0.00,,,0.00,weatherlink.com 1.10,2013-07-25 11:50:00,
2013-07-25 07:05:00,72.4,69.0,29.99,SE,132,3.0,4.0,88,0.00,,,0.00,weatherlink.com 1.10,2013-07-25 12:05:00,
2013-07-25 07:20:00,73.0,69.0,29.99,East,92,1.0,4.0,88,0.00,,,0.00,weatherlink.com 1.10,2013-07-25 12:20:00,
2013-07-25 07:35:00,74.0,70.0,30.00,SE,144,1.0,4.0,87,0.00,,,0.00,weatherlink.com 1.10,2013-07-25 12:35:00,
2013-07-25 07:50:00,75.0,70.0,30.00,ESE,119,3.0,6.0,84,0.00,,,0.00,weatherlink.com 1.10,2013-07-25 12:50:00,
2013-07-25 08:05:00,75.6,70.0,30.01,SE,131,2.0,7.0,83,0.00,,,0.00,weatherlink.com 1.10,2013-07-25 13:05:00,
2013-07-25 08:20:00,76.5,71.0,30.01,SE,142,5.0,8.0,82,0.00,,,0.00,weatherlink.com 1.10,2013-07-25 13:20:00,
2013-07-25 08:35:00,78.0,71.0,30.01,ESE,119,4.0,10.0,79,0.00,,,0.00,weatherlink.com 1.10,2013-07-25 13:35:00,
2013-07-25 08:50:00,79.1,71.0,30.01,SE,144,2.0,9.0,76,0.00,,,0.00,weatherlink.com 1.10,2013-07-25 13:50:00,
2013-07-25 09:05:00,80.9,72.0,30.01,SE,133,4.0,7.0,74,0.00,,,0.00,weatherlink.com 1.10,2013-07-25 14:05:00,
2013-07-25 09:20:00,82.5,72.0,30.01,ESE,119,3.0,5.0,70,0.00,,,0.00,weatherlink.com 1.10,2013-07-25 14:20:00,
2013-07-25 09:34:00,83.6,71.9,30.01,ESE,120,4.0,4.0,68,0.00,,,0.00,Wunderground v.1.15,2013-07-25 14:34:00,
2013-07-25 09:40:00,84.1,72.0,30.01,ESE,109,5.0,8.0,67,0.00,,,0.00,Wunderground v.1.15,2013-07-25 14:40:00,
2013-07-25 09:46:00,84.7,72.1,30.01,SSE,157,4.0,5.0,66,0.00,,,0.00,Wunderground v.1.15,2013-07-25 14:46:00,
2013-07-25 09:52:00,85.2,72.0,30.01,ESE,113,2.0,7.0,65,0.00,,,0.00,weatherlink.com 1.10,2013-07-25 14:52:00,
2013-07-25 09:57:00,85.1,71.5,30.01,ESE,117,3.0,8.0,64,0.00,,,0.00,Wunderground v.1.15,2013-07-25 14:57:00,
2013-07-25 10:02:00,84.5,71.4,30.01,SE,136,4.0,6.0,65,0.00,,,0.00,Wunderground v.1.15,2013-07-25 15:02:00,
2013-07-25 10:08:00,83.9,72.2,30.01,South,173,3.0,6.0,68,0.00,,,0.00,Wunderground v.1.15,2013-07-25 15:08:00,
2013-07-25 10:14:00,83.8,72.1,30.01,ESE,105,2.0,2.0,68,0.00,,,0.00,Wunderground v.1.15,2013-07-25 15:14:00,
2013-07-25 10:20:00,84.4,72.7,30.01,SE,124,2.0,2.0,68,0.00,,,0.00,Wunderground v.1.15,2013-07-25 15:20:00,
2013-07-25 10:25:00,84.5,72.8,30.02,ESE,113,2.0,3.0,68,0.00,,,0.00,Wunderground v.1.15,2013-07-25 15:25:00,
2013-07-25 10:30:00,84.6,73.7,30.01,ESE,119,1.0,1.0,70,0.00,,,0.00,Wunderground v.1.15,2013-07-25 15:30:00,
2013-07-25 10:36:00,85.6,74.0,30.02,SE,132,1.0,4.0,69,0.00,,,0.00,weatherlink.com 1.10,2013-07-25 15:36:00,
2013-07-25 10:41:00,86.5,73.8,30.02,ESE,114,1.0,2.0,66,0.00,,,0.00,Wunderground v.1.15,2013-07-25 15:41:00,
2013-07-25 10:46:00,86.6,74.3,30.02,ESE,112,1.0,2.0,67,0.00,,,0.00,Wunderground v.1.15,2013-07-25 15:46:00,
2013-07-25 10:52:00,86.8,74.0,30.02,South,171,0.0,5.0,66,0.00,,,0.00,weatherlink.com 1.10,2013-07-25 15:52:00,
2013-07-25 10:57:00,86.4,74.1,30.02,SE,132,1.0,4.0,67,0.00,,,0.00,Wunderground v.1.15,2013-07-25 15:57:00,
2013-07-25 11:02:00,86.9,74.6,30.02,SE,125,2.0,2.0,67,0.00,,,0.00,Wunderground v.1.15,2013-07-25 16:02:00,
2013-07-25 11:08:00,87.2,74.0,30.02,SSE,161,1.0,2.0,65,0.00,,,0.00,Wunderground v.1.15,2013-07-25 16:08:00,
2013-07-25 11:14:00,86.2,74.0,30.02,South,175,0.0,1.0,67,0.00,,,0.00,Wunderground v.1.15,2013-07-25 16:14:00,
2013-07-25 11:20:00,86.5,75.1,30.02,SE,127,1.0,1.0,69,0.00,,,0.00,Wunderground v.1.15,2013-07-25 16:20:00,
2013-07-25 11:25:00,87.7,74.9,30.02,SSE,155,3.0,4.0,66,0.00,,,0.00,Wunderground v.1.15,2013-07-25 16:25:00,
2013-07-25 11:31:00,88.3,74.6,30.02,SSE,167,2.0,2.0,64,0.00,,,0.00,Wunderground v.1.15,2013-07-25 16:31:00,
2013-07-25 11:36:00,88.2,75.0,30.02,South,169,1.0,4.0,64,0.00,,,0.00,weatherlink.com 1.10,2013-07-25 16:36:00,
2013-07-25 11:42:00,88.0,74.3,30.03,East,85,1.0,2.0,64,0.00,,,0.00,Wunderground v.1.15,2013-07-25 16:42:00,
2013-07-25 11:47:00,88.6,75.8,30.02,NNE,15,1.0,3.0,66,0.00,,,0.00,Wunderground v.1.15,2013-07-25 16:47:00,
2013-07-25 11:53:00,89.8,76.0,30.03,SE,135,1.0,3.0,64,0.00,,,0.00,Wunderground v.1.15,2013-07-25 16:53:00,
2013-07-25 11:59:00,89.0,73.8,30.03,ENE,65,1.0,3.0,61,0.00,,,0.00,Wunderground v.1.15,2013-07-25 16:59:00,
2013-07-25 12:04:00,89.2,76.8,30.02,NNW,336,1.0,2.0,67,0.00,,,0.00,Wunderground v.1.15,2013-07-25 17:04:00,
2013-07-25 12:10:00,89.9,75.6,30.03,South,176,1.0,1.0,63,0.00,,,0.00,Wunderground v.1.15,2013-07-25 17:10:00,
2013-07-25 12:15:00,89.7,74.0,30.03,SE,135,2.0,2.0,60,0.00,,,0.00,Wunderground v.1.15,2013-07-25 17:15:00,
2013-07-25 12:21:00,89.8,74.0,30.03,SE,130,0.0,5.0,60,0.00,,,0.00,weatherlink.com 1.10,2013-07-25 17:21:00,
2013-07-25 12:27:00,89.6,74.4,30.03,SE,130,0.0,1.0,61,0.00,,,0.00,Wunderground v.1.15,2013-07-25 17:27:00,
2013-07-25 12:33:00,89.7,74.5,30.03,SE,124,0.0,2.0,61,0.00,,,0.00,Wunderground v.1.15,2013-07-25 17:33:00,
2013-07-25 12:39:00,90.3,75.0,30.03,SE,136,0.0,3.0,60,0.00,,,0.00,weatherlink.com 1.10,2013-07-25 17:39:00,
2013-07-25 12:44:00,90.1,73.8,30.03,SE,136,1.0,1.0,59,0.00,,,0.00,Wunderground v.1.15,2013-07-25 17:44:00,
2013-07-25 12:50:00,89.7,74.0,30.03,SE,136,0.0,0.0,60,0.00,,,0.00,Wunderground v.1.15,2013-07-25 17:50:00,
2013-07-25 12:55:00,90.5,74.7,30.03,SE,136,0.0,2.0,60,0.00,,,0.00,Wunderground v.1.15,2013-07-25 17:55:00,
2013-07-25 13:01:00,90.7,73.9,30.03,WSW,239,1.0,1.0,58,0.00,,,0.00,Wunderground v.1.15,2013-07-25 18:01:00,
2013-07-25 13:07:00,90.8,74.0,30.03,NW,305,4.0,5.0,58,0.00,,,0.00,weatherlink.com 1.10,2013-07-25 18:07:00,
2013-07-25 13:12:00,91.2,74.9,30.02,NW,316,2.0,3.0,59,0.00,,,0.00,Wunderground v.1.15,2013-07-25 18:12:00,
2013-07-25 13:17:00,92.0,76.1,30.02,WNW,296,2.0,3.0,60,0.00,,,0.00,Wunderground v.1.15,2013-07-25 18:17:00,
2013-07-25 13:22:00,91.9,74.5,30.02,NW,315,2.0,3.0,57,0.00,,,0.00,Wunderground v.1.15,2013-07-25 18:22:00,
2013-07-25 13:27:00,92.4,76.0,30.02,NW,315,2.0,3.0,59,0.00,,,0.00,Wunderground v.1.15,2013-07-25 18:27:00,
2013-07-25 13:33:00,92.0,71.9,30.02,NW,314,2.0,2.0,52,0.00,,,0.00,Wunderground v.1.15,2013-07-25 18:33:00,
2013-07-25 13:39:00,92.4,74.4,30.02,South,179,1.0,2.0,56,0.00,,,0.00,Wunderground v.1.15,2013-07-25 18:39:00,
2013-07-25 13:44:00,92.2,72.0,30.02,SSW,192,1.0,1.0,52,0.00,,,0.00,Wunderground v.1.15,2013-07-25 18:44:00,
2013-07-25 13:49:00,92.7,73.6,30.02,SSE,159,0.0,1.0,54,0.00,,,0.00,Wunderground v.1.15,2013-07-25 18:49:00,
2013-07-25 13:55:00,93.3,74.2,30.02,SSE,167,0.0,2.0,54,0.00,,,0.00,Wunderground v.1.15,2013-07-25 18:55:00,
2013-07-25 14:00:00,92.8,73.2,30.02,SSW,208,1.0,1.0,53,0.00,,,0.00,Wunderground v.1.15,2013-07-25 19:00:00,
2013-07-25 14:06:00,92.4,75.5,30.01,WSW,247,1.0,1.0,58,0.00,,,0.00,Wunderground v.1.15,2013-07-25 19:06:00,
2013-07-25 14:12:00,92.7,72.5,30.01,West,280,0.0,0.0,52,0.00,,,0.00,Wunderground v.1.15,2013-07-25 19:12:00,
2013-07-25 14:18:00,92.6,74.1,30.01,SSW,204,0.0,1.0,55,0.00,,,0.00,Wunderground v.1.15,2013-07-25 19:18:00,
2013-07-25 14:23:00,92.8,73.7,30.01,NW,310,0.0,0.0,54,0.00,,,0.00,Wunderground v.1.15,2013-07-25 19:23:00,
2013-07-25 14:29:00,92.2,73.7,30.00,NW,312,1.0,2.0,55,0.00,,,0.00,Wunderground v.1.15,2013-07-25 19:29:00,
2013-07-25 14:35:00,92.1,72.5,30.00,NNW,331,1.0,3.0,53,0.00,,,0.00,Wunderground v.1.15,2013-07-25 19:35:00,
2013-07-25 14:41:00,92.4,72.8,30.00,North,355,2.0,2.0,53,0.00,,,0.00,Wunderground v.1.15,2013-07-25 19:41:00,
2013-07-25 14:47:00,93.3,73.0,30.00,ESE,117,1.0,2.0,52,0.00,,,0.00,Wunderground v.1.15,2013-07-25 19:47:00,
2013-07-25 14:52:00,93.6,73.9,30.00,North,9,1.0,2.0,53,0.00,,,0.00,Wunderground v.1.15,2013-07-25 19:52:00,
2013-07-25 14:58:00,93.6,72.7,30.00,NNE,17,2.0,4.0,51,0.00,,,0.00,Wunderground v.1.15,2013-07-25 19:58:00,
2013-07-25 15:03:00,93.8,74.1,29.99,North,5,2.0,2.0,53,0.00,,,0.00,Wunderground v.1.15,2013-07-25 20:03:00,
2013-07-25 15:22:00,95.1,73.0,29.99,NW,321,2.0,4.0,49,0.00,,,0.00,weatherlink.com 1.10,2013-07-25 20:22:00,
2013-07-25 15:37:00,93.7,72.0,29.98,NW,317,0.0,5.0,49,0.00,,,0.00,weatherlink.com 1.10,2013-07-25 20:37:00,
2013-07-25 15:52:00,94.3,72.0,29.98,ENE,66,0.0,4.0,49,0.00,,,0.00,weatherlink.com 1.10,2013-07-25 20:52:00,
2013-07-25 16:07:00,95.5,73.0,29.97,NNW,331,0.0,2.0,49,0.00,,,0.00,weatherlink.com 1.10,2013-07-25 21:07:00,
2013-07-25 16:22:00,94.6,74.0,29.96,East,84,2.0,6.0,51,0.00,,,0.00,weatherlink.com 1.10,2013-07-25 21:22:00,
2013-07-25 16:37:00,95.8,73.0,29.96,SE,136,2.0,9.0,48,0.00,,,0.00,weatherlink.com 1.10,2013-07-25 21:37:00,
2013-07-25 16:52:00,94.4,73.0,29.95,ESE,121,3.0,5.0,50,0.00,,,0.00,weatherlink.com 1.10,2013-07-25 21:52:00,
2013-07-25 17:07:00,94.9,73.0,29.95,East,92,2.0,5.0,49,0.00,,,0.00,weatherlink.com 1.10,2013-07-25 22:07:00,
2013-07-25 17:22:00,94.3,72.0,29.95,ENE,61,1.0,9.0,49,0.00,,,0.00,weatherlink.com 1.10,2013-07-25 22:22:00,
2013-07-25 17:37:00,93.7,72.0,29.95,SE,137,2.0,8.0,50,0.00,,,0.00,weatherlink.com 1.10,2013-07-25 22:37:00,
2013-07-25 17:52:00,95.1,72.0,29.95,ESE,105,2.0,9.0,48,0.00,,,0.00,weatherlink.com 1.10,2013-07-25 22:52:00,
2013-07-25 18:07:00,94.2,72.0,29.95,East,97,5.0,10.0,48,0.00,,,0.00,weatherlink.com 1.10,2013-07-25 23:07:00,
2013-07-25 18:22:00,93.2,71.0,29.95,ESE,103,1.0,7.0,49,0.00,,,0.00,weatherlink.com 1.10,2013-07-25 23:22:00,
2013-07-25 18:37:00,92.8,72.0,29.95,SE,138,2.0,8.0,50,0.00,,,0.00,weatherlink.com 1.10,2013-07-25 23:37:00,
2013-07-25 18:52:00,92.3,72.0,29.95,ESE,123,0.0,9.0,51,0.00,,,0.00,weatherlink.com 1.10,2013-07-25 23:52:00,
2013-07-25 19:07:00,91.6,72.0,29.95,ESE,121,1.0,8.0,53,0.00,,,0.00,weatherlink.com 1.10,2013-07-26 00:07:00,
2013-07-25 19:22:00,90.8,72.0,29.95,ESE,121,3.0,9.0,54,0.00,,,0.00,weatherlink.com 1.10,2013-07-26 00:22:00,
2013-07-25 19:37:00,89.7,72.0,29.95,SE,144,1.0,6.0,56,0.00,,,0.00,weatherlink.com 1.10,2013-07-26 00:37:00,
2013-07-25 19:52:00,89.2,72.0,29.95,SE,132,1.0,8.0,57,0.00,,,0.00,weatherlink.com 1.10,2013-07-26 00:52:00,
2013-07-25 20:07:00,88.6,72.0,29.95,SE,136,3.0,6.0,58,0.00,,,0.00,weatherlink.com 1.10,2013-07-26 01:07:00,
2013-07-25 20:22:00,88.2,72.0,29.95,SE,138,1.0,7.0,58,0.00,,,0.00,weatherlink.com 1.10,2013-07-26 01:22:00,
2013-07-25 20:37:00,87.9,71.0,29.95,SE,140,2.0,5.0,58,0.00,,,0.00,weatherlink.com 1.10,2013-07-26 01:37:00,
2013-07-25 20:52:00,87.3,71.0,29.95,ESE,113,0.0,6.0,59,0.00,,,0.00,weatherlink.com 1.10,2013-07-26 01:52:00,
2013-07-25 21:07:00,86.9,71.0,29.96,ESE,113,5.0,7.0,60,0.00,,,0.00,weatherlink.com 1.10,2013-07-26 02:07:00,
2013-07-25 21:22:00,86.4,71.0,29.96,ESE,102,1.0,5.0,60,0.00,,,0.00,weatherlink.com 1.10,2013-07-26 02:22:00,
2013-07-25 21:37:00,85.9,71.0,29.97,SE,136,0.0,6.0,61,0.00,,,0.00,weatherlink.com 1.10,2013-07-26 02:37:00,
2013-07-25 21:52:00,85.6,71.0,29.98,SE,132,0.0,5.0,61,0.00,,,0.00,weatherlink.com 1.10,2013-07-26 02:52:00,
2013-07-25 22:07:00,85.2,71.0,29.98,ENE,71,0.0,5.0,62,0.00,,,0.00,weatherlink.com 1.10,2013-07-26 03:07:00,
2013-07-25 22:22:00,84.8,71.0,29.97,ESE,111,1.0,7.0,63,0.00,,,0.00,weatherlink.com 1.10,2013-07-26 03:22:00,
2013-07-25 22:37:00,84.5,70.0,29.96,SSW,197,7.0,8.0,63,0.00,,,0.00,weatherlink.com 1.10,2013-07-26 03:37:00,
2013-07-25 22:52:00,84.4,71.0,29.96,South,170,5.0,7.0,64,0.00,,,0.00,weatherlink.com 1.10,2013-07-26 03:52:00,
2013-07-25 23:07:00,84.2,71.0,29.96,South,171,2.0,9.0,65,0.00,,,0.00,weatherlink.com 1.10,2013-07-26 04:07:00,
2013-07-25 23:22:00,84.1,71.0,29.96,SSE,162,1.0,10.0,65,0.00,,,0.00,weatherlink.com 1.10,2013-07-26 04:22:00,
2013-07-25 23:37:00,83.8,71.0,29.96,South,174,2.0,9.0,65,0.00,,,0.00,weatherlink.com 1.10,2013-07-26 04:37:00,
2013-07-25 23:52:00,83.7,71.0,29.96,SE,146,2.0,11.0,65,0.00,,,0.00,weatherlink.com 1.10,2013-07-26 04:52:00,